Time,TemperatureF,DewpointF,PressureIn,WindDirection,WindDirectionDegrees,WindSpeedMPH,WindSpeedGustMPH,Humidity,HourlyPrecipIn,Conditions,Clouds,dailyrainin,SoftwareType,DateUTC
2013-02-01 00:00:00,35.4,21.7,29.99,North,360,9.0,10.0,57,0.00,,---,0.04,VWS V14.01,2013-02-01 05:00:00,
2013-02-01 00:01:00,35.4,21.7,29.99,North,360,10.0,10.0,57,0.00,,---,0.04,VWS V14.01,2013-02-01 05:01:00,
2013-02-01 00:03:00,35.5,21.8,29.99,North,360,4.0,9.0,57,0.00,,---,0.00,VWS V14.01,2013-02-01 05:03:00,
2013-02-01 00:08:00,35.4,22.1,30.00,North,360,7.0,11.0,58,0.00,,---,0.00,VWS V14.01,2013-02-01 05:08:00,
2013-02-01 00:13:00,35.3,22.0,29.99,North,360,7.0,11.0,58,0.00,,---,0.00,VWS V14.01,2013-02-01 05:13:00,
2013-02-01 00:18:00,35.3,22.4,29.99,North,360,5.0,12.0,59,0.00,,---,0.00,VWS V14.01,2013-02-01 05:18:00,
2013-02-01 00:23:00,35.3,22.4,29.98,North,360,7.0,14.0,59,0.00,,---,0.00,VWS V14.01,2013-02-01 05:23:00,
2013-02-01 00:28:00,35.2,22.7,29.98,North,360,2.0,14.0,60,0.00,,---,0.00,VWS V14.01,2013-02-01 05:28:00,
2013-02-01 00:34:00,35.2,22.7,29.99,North,360,5.0,14.0,60,0.00,,---,0.00,VWS V14.01,2013-02-01 05:34:00,
2013-02-01 00:39:00,35.3,22.8,29.99,North,360,6.0,14.0,60,0.00,,---,0.00,VWS V14.01,2013-02-01 05:39:00,
2013-02-01 00:44:00,35.8,22.9,29.99,North,360,15.0,15.0,59,0.00,,---,0.00,VWS V14.01,2013-02-01 05:44:00,
2013-02-01 00:49:00,36.1,23.2,29.99,North,360,9.0,15.0,59,0.00,,---,0.00,VWS V14.01,2013-02-01 05:49:00,
2013-02-01 00:54:00,36.3,23.4,29.98,North,360,7.0,15.0,59,0.00,,---,0.00,VWS V14.01,2013-02-01 05:54:00,
2013-02-01 00:59:00,36.4,23.9,29.98,North,360,13.0,15.0,60,0.00,,---,0.00,VWS V14.01,2013-02-01 05:59:00,
2013-02-01 01:04:00,36.6,23.6,29.98,North,360,5.0,18.0,59,0.00,,---,0.00,VWS V14.01,2013-02-01 06:04:00,
2013-02-01 01:09:00,36.6,24.0,29.98,North,360,11.0,18.0,60,0.00,,---,0.00,VWS V14.01,2013-02-01 06:09:00,
2013-02-01 01:14:00,36.7,24.1,29.98,North,360,10.0,18.0,60,0.00,,---,0.00,VWS V14.01,2013-02-01 06:14:00,
2013-02-01 01:19:00,36.7,24.1,29.98,North,360,12.0,18.0,60,0.00,,---,0.00,VWS V14.01,2013-02-01 06:19:00,
2013-02-01 01:24:00,36.6,24.0,29.97,North,360,8.0,18.0,60,0.00,,---,0.00,VWS V14.01,2013-02-01 06:24:00,
2013-02-01 01:29:00,36.6,24.0,29.97,North,360,14.0,18.0,60,0.00,,---,0.00,VWS V14.01,2013-02-01 06:29:00,
2013-02-01 01:34:00,36.4,24.2,29.97,North,360,9.0,19.0,61,0.00,,---,0.00,VWS V14.01,2013-02-01 06:34:00,
2013-02-01 01:39:00,36.3,24.1,29.96,North,360,6.0,19.0,61,0.00,,---,0.00,VWS V14.01,2013-02-01 06:39:00,
2013-02-01 01:44:00,36.3,24.1,29.96,North,360,8.0,19.0,61,0.00,,---,0.00,VWS V14.01,2013-02-01 06:44:00,
2013-02-01 01:49:00,36.5,24.3,29.96,North,360,10.0,19.0,61,0.00,,---,0.00,VWS V14.01,2013-02-01 06:49:00,
2013-02-01 01:55:00,36.6,24.4,29.96,North,360,15.0,19.0,61,0.00,,---,0.00,VWS V14.01,2013-02-01 06:55:00,
2013-02-01 02:00:00,36.7,24.5,29.96,North,360,10.0,20.0,61,0.00,,---,0.00,VWS V14.01,2013-02-01 07:00:00,
2013-02-01 02:05:00,36.9,24.7,29.95,North,360,21.0,21.0,61,0.00,,---,0.00,VWS V14.01,2013-02-01 07:05:00,
2013-02-01 02:10:00,37.1,24.9,29.96,North,360,10.0,21.0,61,0.00,,---,0.00,VWS V14.01,2013-02-01 07:10:00,
2013-02-01 02:15:00,37.1,24.9,29.95,North,360,19.0,21.0,61,0.00,,---,0.00,VWS V14.01,2013-02-01 07:15:00,
2013-02-01 02:20:00,37.2,25.0,29.95,North,360,12.0,21.0,61,0.00,,---,0.00,VWS V14.01,2013-02-01 07:20:00,
2013-02-01 02:25:00,37.3,25.1,29.95,North,360,12.0,21.0,61,0.00,,---,0.00,VWS V14.01,2013-02-01 07:25:00,
2013-02-01 02:30:00,37.4,25.2,29.94,North,360,12.0,21.0,61,0.00,,---,0.00,VWS V14.01,2013-02-01 07:30:00,
2013-02-01 02:35:00,37.6,25.0,29.94,North,360,15.0,23.0,60,0.00,,---,0.00,VWS V14.01,2013-02-01 07:35:00,
2013-02-01 02:40:00,37.8,25.2,29.94,North,360,15.0,23.0,60,0.00,,---,0.00,VWS V14.01,2013-02-01 07:40:00,
2013-02-01 02:45:00,38.0,25.4,29.94,North,360,19.0,23.0,60,0.00,,---,0.00,VWS V14.01,2013-02-01 07:45:00,
2013-02-01 02:50:00,38.1,25.5,29.93,North,360,16.0,23.0,60,0.00,,---,0.00,VWS V14.01,2013-02-01 07:50:00,
2013-02-01 02:55:00,38.2,25.5,29.93,North,360,9.0,23.0,60,0.00,,---,0.00,VWS V14.01,2013-02-01 07:55:00,
2013-02-01 03:01:00,38.2,25.5,29.93,North,360,21.0,23.0,60,0.00,,---,0.00,VWS V14.01,2013-02-01 08:01:00,
2013-02-01 03:06:00,38.4,25.7,29.92,North,360,14.0,21.0,60,0.00,,---,0.00,VWS V14.01,2013-02-01 08:06:00,
2013-02-01 03:11:00,38.5,25.8,29.92,North,360,12.0,22.0,60,0.00,,---,0.00,VWS V14.01,2013-02-01 08:11:00,
2013-02-01 03:16:00,38.6,25.9,29.91,North,360,13.0,22.0,60,0.00,,---,0.00,VWS V14.01,2013-02-01 08:16:00,
2013-02-01 03:21:00,38.8,25.7,29.91,North,360,13.0,25.0,59,0.00,,---,0.00,VWS V14.01,2013-02-01 08:21:00,
2013-02-01 03:26:00,38.9,25.8,29.91,North,360,17.0,25.0,59,0.00,,---,0.00,VWS V14.01,2013-02-01 08:26:00,
2013-02-01 03:31:00,39.1,26.0,29.90,North,360,16.0,26.0,59,0.00,,---,0.00,VWS V14.01,2013-02-01 08:31:00,
2013-02-01 03:36:00,39.2,26.1,29.90,North,360,15.0,28.0,59,0.00,,---,0.00,VWS V14.01,2013-02-01 08:36:00,
2013-02-01 03:41:00,39.3,26.2,29.90,North,360,21.0,28.0,59,0.00,,---,0.00,VWS V14.01,2013-02-01 08:41:00,
2013-02-01 03:46:00,39.3,26.2,29.90,North,360,15.0,28.0,59,0.00,,---,0.00,VWS V14.01,2013-02-01 08:46:00,
2013-02-01 03:51:00,39.5,26.4,29.89,North,360,14.0,28.0,59,0.00,,---,0.00,VWS V14.01,2013-02-01 08:51:00,
2013-02-01 03:56:00,39.5,26.4,29.89,North,360,13.0,29.0,59,0.00,,---,0.00,VWS V14.01,2013-02-01 08:56:00,
2013-02-01 04:01:00,39.6,26.5,29.89,North,360,13.0,29.0,59,0.00,,---,0.00,VWS V14.01,2013-02-01 09:01:00,
2013-02-01 04:07:00,39.6,26.5,29.89,North,360,10.0,22.0,59,0.00,,---,0.00,VWS V14.01,2013-02-01 09:07:00,
2013-02-01 04:12:00,39.7,26.6,29.89,North,360,5.0,26.0,59,0.00,,---,0.00,VWS V14.01,2013-02-01 09:12:00,
2013-02-01 04:17:00,39.7,26.6,29.89,North,360,18.0,29.0,59,0.00,,---,0.00,VWS V14.01,2013-02-01 09:17:00,
2013-02-01 04:22:00,39.7,26.6,29.89,North,360,14.0,29.0,59,0.00,,---,0.00,VWS V14.01,2013-02-01 09:22:00,
2013-02-01 04:27:00,39.7,26.6,29.89,North,360,13.0,29.0,59,0.00,,---,0.00,VWS V14.01,2013-02-01 09:27:00,
2013-02-01 04:32:00,39.8,26.7,29.90,North,360,20.0,29.0,59,0.00,,---,0.00,VWS V14.01,2013-02-01 09:32:00,
2013-02-01 04:37:00,39.7,26.6,29.90,North,360,14.0,29.0,59,0.00,,---,0.00,VWS V14.01,2013-02-01 09:37:00,
2013-02-01 04:42:00,39.8,26.7,29.90,North,360,16.0,29.0,59,0.00,,---,0.00,VWS V14.01,2013-02-01 09:42:00,
2013-02-01 04:47:00,39.8,27.1,29.89,North,360,13.0,29.0,60,0.00,,---,0.00,VWS V14.01,2013-02-01 09:47:00,
2013-02-01 04:52:00,39.7,27.0,29.90,North,360,15.0,29.0,60,0.00,,---,0.00,VWS V14.01,2013-02-01 09:52:00,
2013-02-01 04:57:00,39.7,27.0,29.91,North,360,15.0,29.0,60,0.00,,---,0.00,VWS V14.01,2013-02-01 09:57:00,
2013-02-01 05:02:00,39.8,27.1,29.91,North,360,10.0,29.0,60,0.00,,---,0.00,VWS V14.01,2013-02-01 10:02:00,
2013-02-01 05:07:00,39.7,27.0,29.91,North,360,18.0,19.0,60,0.00,,---,0.00,VWS V14.01,2013-02-01 10:07:00,
2013-02-01 05:12:00,39.7,27.4,29.92,North,360,21.0,21.0,61,0.00,,---,0.00,VWS V14.01,2013-02-01 10:12:00,
2013-02-01 05:17:00,39.8,27.5,29.92,North,360,16.0,21.0,61,0.00,,---,0.00,VWS V14.01,2013-02-01 10:17:00,
2013-02-01 05:22:00,39.8,27.5,29.92,North,360,12.0,21.0,61,0.00,,---,0.00,VWS V14.01,2013-02-01 10:22:00,
2013-02-01 05:27:00,39.8,27.5,29.92,North,360,9.0,21.0,61,0.00,,---,0.00,VWS V14.01,2013-02-01 10:27:00,
2013-02-01 05:33:00,39.7,27.4,29.93,North,360,9.0,21.0,61,0.00,,---,0.00,VWS V14.01,2013-02-01 10:33:00,
2013-02-01 05:38:00,39.5,27.6,29.94,North,360,5.0,21.0,62,0.00,,---,0.00,VWS V14.01,2013-02-01 10:38:00,
2013-02-01 05:43:00,39.5,27.6,29.94,North,360,10.0,21.0,62,0.00,,---,0.00,VWS V14.01,2013-02-01 10:43:00,
2013-02-01 05:48:00,39.5,27.6,29.95,North,360,10.0,21.0,62,0.00,,---,0.00,VWS V14.01,2013-02-01 10:48:00,
2013-02-01 05:53:00,39.5,27.6,29.95,North,360,13.0,21.0,62,0.00,,---,0.00,VWS V14.01,2013-02-01 10:53:00,
2013-02-01 05:58:00,39.5,27.6,29.96,North,360,16.0,21.0,62,0.00,,---,0.00,VWS V14.01,2013-02-01 10:58:00,
2013-02-01 06:03:00,39.5,27.6,29.95,North,360,16.0,24.0,62,0.00,,---,0.00,VWS V14.01,2013-02-01 11:03:00,
2013-02-01 06:08:00,39.5,27.6,29.96,North,360,6.0,24.0,62,0.00,,---,0.00,VWS V14.01,2013-02-01 11:08:00,
2013-02-01 06:13:00,39.4,27.5,29.97,North,360,13.0,24.0,62,0.00,,---,0.00,VWS V14.01,2013-02-01 11:13:00,
2013-02-01 06:18:00,39.3,27.4,29.97,North,360,12.0,24.0,62,0.00,,---,0.00,VWS V14.01,2013-02-01 11:18:00,
2013-02-01 06:23:00,39.3,27.8,29.98,North,360,9.0,24.0,63,0.00,,---,0.00,VWS V14.01,2013-02-01 11:23:00,
2013-02-01 06:28:00,39.3,27.8,29.99,North,360,17.0,25.0,63,0.00,,---,0.00,VWS V14.01,2013-02-01 11:28:00,
2013-02-01 06:33:00,39.2,27.7,30.00,North,360,7.0,33.0,63,0.00,,---,0.00,VWS V14.01,2013-02-01 11:33:00,
2013-02-01 06:38:00,38.7,28.0,30.01,North,360,15.0,33.0,65,0.00,,---,0.00,VWS V14.01,2013-02-01 11:38:00,
2013-02-01 06:43:00,37.6,27.6,30.02,North,360,16.0,33.0,67,0.00,,---,0.00,VWS V14.01,2013-02-01 11:43:00,
2013-02-01 06:49:00,37.4,27.8,30.03,North,360,15.0,33.0,68,0.00,,---,0.00,VWS V14.01,2013-02-01 11:49:00,
2013-02-01 06:54:00,37.4,27.8,30.03,North,360,15.0,33.0,68,0.00,,---,0.00,VWS V14.01,2013-02-01 11:54:00,
2013-02-01 06:59:00,37.4,27.8,30.04,North,360,15.0,33.0,68,0.00,,---,0.00,VWS V14.01,2013-02-01 11:59:00,
2013-02-01 07:04:00,37.4,27.8,30.05,North,360,15.0,15.0,68,0.00,,---,0.00,VWS V14.01,2013-02-01 12:04:00,
2013-02-01 07:09:00,37.4,27.8,30.05,North,360,15.0,15.0,68,0.00,,---,0.00,VWS V14.01,2013-02-01 12:09:00,
2013-02-01 07:14:00,37.4,27.8,30.06,North,360,15.0,15.0,68,0.00,,---,0.00,VWS V14.01,2013-02-01 12:14:00,
2013-02-01 07:19:00,37.4,27.8,30.06,North,360,15.0,15.0,68,0.00,,---,0.00,VWS V14.01,2013-02-01 12:19:00,
2013-02-01 07:24:00,37.4,27.8,30.07,North,360,15.0,15.0,68,0.00,,---,0.00,VWS V14.01,2013-02-01 12:24:00,
2013-02-01 07:29:00,37.4,27.8,30.08,North,360,15.0,15.0,68,0.00,,---,0.00,VWS V14.01,2013-02-01 12:29:00,
2013-02-01 07:34:00,37.4,27.8,30.08,North,360,15.0,15.0,68,0.00,,---,0.00,VWS V14.01,2013-02-01 12:34:00,
2013-02-01 07:39:00,37.4,27.8,30.09,North,360,15.0,15.0,68,0.00,,---,0.00,VWS V14.01,2013-02-01 12:39:00,
2013-02-01 07:44:00,37.4,27.8,30.09,North,360,15.0,15.0,68,0.00,,---,0.00,VWS V14.01,2013-02-01 12:44:00,
2013-02-01 07:49:00,37.4,27.8,30.10,North,360,15.0,15.0,68,0.00,,---,0.00,VWS V14.01,2013-02-01 12:49:00,
2013-02-01 07:55:00,37.4,27.8,30.10,North,360,15.0,15.0,68,0.00,,---,0.00,VWS V14.01,2013-02-01 12:55:00,
2013-02-01 08:00:00,37.4,27.8,30.11,North,360,15.0,15.0,68,0.00,,---,0.00,VWS V14.01,2013-02-01 13:00:00,
2013-02-01 08:05:00,33.2,10.4,30.11,North,360,23.0,24.0,38,0.00,,---,0.00,VWS V14.01,2013-02-01 13:05:00,
2013-02-01 08:10:00,32.9,10.1,30.12,North,360,17.0,25.0,38,0.00,,---,0.00,VWS V14.01,2013-02-01 13:10:00,
2013-02-01 08:15:00,32.8,11.7,30.13,North,360,17.0,25.0,41,0.00,,---,0.00,VWS V14.01,2013-02-01 13:15:00,
2013-02-01 08:20:00,32.7,15.2,30.14,North,360,10.0,25.0,48,0.00,,---,0.00,VWS V14.01,2013-02-01 13:20:00,
2013-02-01 08:25:00,32.5,15.5,30.14,North,360,6.0,25.0,49,0.00,,---,0.00,VWS V14.01,2013-02-01 13:25:00,
2013-02-01 08:30:00,32.3,14.8,30.14,North,360,9.0,25.0,48,0.00,,---,0.00,VWS V14.01,2013-02-01 13:30:00,
2013-02-01 08:35:00,32.1,13.7,30.14,North,360,25.0,26.0,46,0.00,,---,0.00,VWS V14.01,2013-02-01 13:35:00,
2013-02-01 08:40:00,32.2,13.3,30.15,North,360,24.0,26.0,45,0.00,,---,0.00,VWS V14.01,2013-02-01 13:40:00,
2013-02-01 08:45:00,32.0,13.1,30.16,North,360,11.0,26.0,45,0.00,,---,0.00,VWS V14.01,2013-02-01 13:45:00,
2013-02-01 08:50:00,31.9,13.5,30.17,North,360,16.0,26.0,46,0.00,,---,0.00,VWS V14.01,2013-02-01 13:50:00,
2013-02-01 08:55:00,31.5,13.6,30.17,North,360,17.0,26.0,47,0.00,,---,0.00,VWS V14.01,2013-02-01 13:55:00,
2013-02-01 09:00:00,31.3,14.4,30.18,North,360,11.0,26.0,49,0.00,,---,0.00,VWS V14.01,2013-02-01 14:00:00,
2013-02-01 09:05:00,31.2,14.3,30.18,North,360,12.0,18.0,49,0.00,,---,0.00,VWS V14.01,2013-02-01 14:05:00,
2013-02-01 09:10:00,31.2,14.3,30.19,North,360,13.0,21.0,49,0.00,,---,0.00,VWS V14.01,2013-02-01 14:10:00,
2013-02-01 09:16:00,30.7,13.8,30.20,North,360,7.0,22.0,49,0.00,,---,0.00,VWS V14.01,2013-02-01 14:16:00,
2013-02-01 09:21:00,30.2,12.4,30.20,North,360,16.0,27.0,47,0.00,,---,0.00,VWS V14.01,2013-02-01 14:21:00,
2013-02-01 09:26:00,30.2,12.4,30.20,North,360,3.0,27.0,47,0.00,,---,0.00,VWS V14.01,2013-02-01 14:26:00,
2013-02-01 09:31:00,30.5,12.2,30.20,North,360,1.0,27.0,46,0.00,,---,0.00,VWS V14.01,2013-02-01 14:31:00,
2013-02-01 09:36:00,30.3,11.0,30.21,North,360,9.0,27.0,44,0.00,,---,0.00,VWS V14.01,2013-02-01 14:36:00,
2013-02-01 09:41:00,29.7,9.4,30.21,North,360,7.0,27.0,42,0.00,,---,0.00,VWS V14.01,2013-02-01 14:41:00,
2013-02-01 09:46:00,29.3,8.5,30.21,North,360,14.0,27.0,41,0.00,,---,0.00,VWS V14.01,2013-02-01 14:46:00,
2013-02-01 09:51:00,29.4,8.6,30.22,North,360,10.0,27.0,41,0.00,,---,0.00,VWS V14.01,2013-02-01 14:51:00,
2013-02-01 09:56:00,29.3,7.4,30.22,North,360,9.0,27.0,39,0.00,,---,0.00,VWS V14.01,2013-02-01 14:56:00,
2013-02-01 10:01:00,29.8,7.9,30.22,North,360,7.0,27.0,39,0.00,,---,0.00,VWS V14.01,2013-02-01 15:01:00,
2013-02-01 10:06:00,29.9,8.0,30.23,North,360,16.0,18.0,39,0.00,,---,0.00,VWS V14.01,2013-02-01 15:06:00,
2013-02-01 10:11:00,29.9,6.8,30.23,North,360,22.0,25.0,37,0.00,,---,0.00,VWS V14.01,2013-02-01 15:11:00,
2013-02-01 10:16:00,29.2,5.6,30.24,North,360,5.0,25.0,36,0.00,,---,0.00,VWS V14.01,2013-02-01 15:16:00,
2013-02-01 10:22:00,29.0,5.4,30.25,North,360,21.0,25.0,36,0.00,,---,0.00,VWS V14.01,2013-02-01 15:22:00,
2013-02-01 10:27:00,29.0,5.4,30.25,North,360,6.0,25.0,36,0.00,,---,0.00,VWS V14.01,2013-02-01 15:27:00,
2013-02-01 10:32:00,29.2,5.6,30.25,North,360,12.0,25.0,36,0.00,,---,0.00,VWS V14.01,2013-02-01 15:32:00,
2013-02-01 10:37:00,29.4,5.1,30.26,North,360,14.0,25.0,35,0.00,,---,0.00,VWS V14.01,2013-02-01 15:37:00,
2013-02-01 10:42:00,29.3,5.7,30.26,North,360,9.0,25.0,36,0.00,,---,0.00,VWS V14.01,2013-02-01 15:42:00,
2013-02-01 10:47:00,29.5,5.8,30.26,North,360,17.0,25.0,36,0.00,,---,0.00,VWS V14.01,2013-02-01 15:47:00,
2013-02-01 10:52:00,29.3,5.7,30.26,North,360,20.0,25.0,36,0.00,,---,0.00,VWS V14.01,2013-02-01 15:52:00,
2013-02-01 10:57:00,29.4,5.8,30.26,North,360,8.0,25.0,36,0.00,,---,0.00,VWS V14.01,2013-02-01 15:57:00,
2013-02-01 11:02:00,30.2,6.5,30.27,North,360,12.0,25.0,36,0.00,,---,0.00,VWS V14.01,2013-02-01 16:02:00,
2013-02-01 11:07:00,29.8,5.5,30.27,North,360,5.0,24.0,35,0.00,,---,0.00,VWS V14.01,2013-02-01 16:07:00,
2013-02-01 11:12:00,29.8,5.5,30.27,North,360,2.0,24.0,35,0.00,,---,0.00,VWS V14.01,2013-02-01 16:12:00,
2013-02-01 11:17:00,29.9,5.0,30.28,North,360,13.0,24.0,34,0.00,,---,0.00,VWS V14.01,2013-02-01 16:17:00,
2013-02-01 11:22:00,29.8,5.5,30.28,North,360,7.0,24.0,35,0.00,,---,0.00,VWS V14.01,2013-02-01 16:22:00,
2013-02-01 11:27:00,29.9,5.0,30.27,North,360,14.0,24.0,34,0.00,,---,0.00,VWS V14.01,2013-02-01 16:27:00,
2013-02-01 11:32:00,30.1,5.1,30.28,North,360,13.0,24.0,34,0.00,,---,0.00,VWS V14.01,2013-02-01 16:32:00,
2013-02-01 11:37:00,30.0,5.7,30.27,North,360,6.0,24.0,35,0.00,,---,0.00,VWS V14.01,2013-02-01 16:37:00,
2013-02-01 11:42:00,30.3,5.3,30.27,North,360,12.0,24.0,34,0.00,,---,0.00,VWS V14.01,2013-02-01 16:42:00,
2013-02-01 11:48:00,30.3,5.9,30.27,North,360,11.0,24.0,35,0.00,,---,0.00,VWS V14.01,2013-02-01 16:48:00,
2013-02-01 11:53:00,30.4,5.4,30.28,North,360,13.0,24.0,34,0.00,,---,0.00,VWS V14.01,2013-02-01 16:53:00,
2013-02-01 11:58:00,30.4,5.4,30.28,North,360,10.0,24.0,34,0.00,,---,0.00,VWS V14.01,2013-02-01 16:58:00,
2013-02-01 12:03:00,30.4,5.4,30.28,North,360,10.0,13.0,34,0.00,,---,0.00,VWS V14.01,2013-02-01 17:03:00,
2013-02-01 12:08:00,30.5,5.5,30.28,North,360,10.0,19.0,34,0.00,,---,0.00,VWS V14.01,2013-02-01 17:08:00,
2013-02-01 12:13:00,30.8,6.4,30.28,North,360,11.0,20.0,35,0.00,,---,0.00,VWS V14.01,2013-02-01 17:13:00,
2013-02-01 12:18:00,31.0,6.6,30.28,North,360,6.0,20.0,35,0.00,,---,0.00,VWS V14.01,2013-02-01 17:18:00,
2013-02-01 12:23:00,31.0,5.9,30.28,North,360,11.0,20.0,34,0.00,,---,0.00,VWS V14.01,2013-02-01 17:23:00,
2013-02-01 12:28:00,30.8,6.4,30.28,North,360,7.0,21.0,35,0.00,,---,0.00,VWS V14.01,2013-02-01 17:28:00,
2013-02-01 12:33:00,30.8,6.4,30.28,North,360,8.0,21.0,35,0.00,,---,0.00,VWS V14.01,2013-02-01 17:33:00,
2013-02-01 12:38:00,31.0,6.6,30.27,North,360,5.0,21.0,35,0.00,,---,0.00,VWS V14.01,2013-02-01 17:38:00,
2013-02-01 12:43:00,31.2,7.4,30.27,North,360,9.0,21.0,36,0.00,,---,0.00,VWS V14.01,2013-02-01 17:43:00,
2013-02-01 12:48:00,31.1,6.0,30.27,North,360,10.0,21.0,34,0.00,,---,0.00,VWS V14.01,2013-02-01 17:48:00,
2013-02-01 12:53:00,31.4,6.9,30.27,North,360,10.0,21.0,35,0.00,,---,0.00,VWS V14.01,2013-02-01 17:53:00,
2013-02-01 12:58:00,31.9,6.7,30.27,North,360,12.0,21.0,34,0.00,,---,0.00,VWS V14.01,2013-02-01 17:58:00,
2013-02-01 13:03:00,32.0,6.8,30.27,North,360,5.0,16.0,34,0.00,,---,0.00,VWS V14.01,2013-02-01 18:03:00,
2013-02-01 13:08:00,32.4,7.2,30.26,North,360,11.0,17.0,34,0.00,,---,0.00,VWS V14.01,2013-02-01 18:08:00,
2013-02-01 13:14:00,31.9,6.7,30.27,North,360,9.0,19.0,34,0.00,,---,0.00,VWS V14.01,2013-02-01 18:14:00,
2013-02-01 13:19:00,32.1,6.2,30.27,North,360,8.0,19.0,33,0.00,,---,0.00,VWS V14.01,2013-02-01 18:19:00,
2013-02-01 13:24:00,32.1,6.9,30.27,North,360,10.0,20.0,34,0.00,,---,0.00,VWS V14.01,2013-02-01 18:24:00,
2013-02-01 13:29:00,32.4,5.8,30.27,North,360,19.0,20.0,32,0.00,,---,0.00,VWS V14.01,2013-02-01 18:29:00,
2013-02-01 13:34:00,32.5,6.6,30.27,North,360,17.0,28.0,33,0.00,,---,0.00,VWS V14.01,2013-02-01 18:34:00,
2013-02-01 13:39:00,32.8,6.2,30.27,North,360,18.0,28.0,32,0.00,,---,0.00,VWS V14.01,2013-02-01 18:39:00,
2013-02-01 13:44:00,32.6,6.0,30.26,North,360,8.0,28.0,32,0.00,,---,0.00,VWS V14.01,2013-02-01 18:44:00,
2013-02-01 13:49:00,32.6,5.3,30.26,North,360,21.0,28.0,31,0.00,,---,0.00,VWS V14.01,2013-02-01 18:49:00,
2013-02-01 13:54:00,32.3,5.8,30.27,North,360,10.0,28.0,32,0.00,,---,0.00,VWS V14.01,2013-02-01 18:54:00,
2013-02-01 13:59:00,33.0,7.1,30.27,North,360,6.0,28.0,33,0.00,,---,0.00,VWS V14.01,2013-02-01 18:59:00,
2013-02-01 14:04:00,33.1,5.8,30.27,North,360,13.0,15.0,31,0.00,,---,0.00,VWS V14.01,2013-02-01 19:04:00,
2013-02-01 14:09:00,33.0,5.7,30.28,North,360,15.0,18.0,31,0.00,,---,0.00,VWS V14.01,2013-02-01 19:09:00,
2013-02-01 14:14:00,33.4,6.0,30.28,North,360,18.0,19.0,31,0.00,,---,0.00,VWS V14.01,2013-02-01 19:14:00,
2013-02-01 14:19:00,33.3,6.6,30.28,North,360,9.0,21.0,32,0.00,,---,0.00,VWS V14.01,2013-02-01 19:19:00,
2013-02-01 14:24:00,33.4,5.3,30.28,North,360,14.0,21.0,30,0.00,,---,0.00,VWS V14.01,2013-02-01 19:24:00,
2013-02-01 14:30:00,33.3,6.6,30.28,North,360,22.0,25.0,32,0.00,,---,0.00,VWS V14.01,2013-02-01 19:30:00,
2013-02-01 14:35:00,32.8,5.5,30.28,North,360,20.0,25.0,31,0.00,,---,0.00,VWS V14.01,2013-02-01 19:35:00,
2013-02-01 14:40:00,33.5,5.4,30.28,North,360,17.0,25.0,30,0.00,,---,0.00,VWS V14.01,2013-02-01 19:40:00,
2013-02-01 14:45:00,33.4,5.3,30.29,North,360,14.0,25.0,30,0.00,,---,0.00,VWS V14.01,2013-02-01 19:45:00,
2013-02-01 14:50:00,33.5,6.8,30.28,North,360,15.0,25.0,32,0.00,,---,0.00,VWS V14.01,2013-02-01 19:50:00,
2013-02-01 14:55:00,33.6,5.5,30.28,North,360,10.0,25.0,30,0.00,,---,0.00,VWS V14.01,2013-02-01 19:55:00,
2013-02-01 15:01:00,33.9,5.8,30.28,North,360,11.0,25.0,30,0.00,,---,0.00,VWS V14.01,2013-02-01 20:01:00,
2013-02-01 15:06:00,34.2,5.3,30.28,North,360,20.0,20.0,29,0.00,,---,0.00,VWS V14.01,2013-02-01 20:06:00,
2013-02-01 15:11:00,34.2,5.3,30.29,North,360,10.0,20.0,29,0.00,,---,0.00,VWS V14.01,2013-02-01 20:11:00,
2013-02-01 15:16:00,34.0,4.3,30.29,North,360,15.0,21.0,28,0.00,,---,0.00,VWS V14.01,2013-02-01 20:16:00,
2013-02-01 15:21:00,33.8,4.2,30.29,North,360,9.0,21.0,28,0.00,,---,0.00,VWS V14.01,2013-02-01 20:21:00,
2013-02-01 15:26:00,33.8,3.4,30.29,North,360,16.0,22.0,27,0.00,,---,0.00,VWS V14.01,2013-02-01 20:26:00,
2013-02-01 15:31:00,33.7,4.8,30.29,North,360,10.0,28.0,29,0.00,,---,0.00,VWS V14.01,2013-02-01 20:31:00,
2013-02-01 15:36:00,33.7,4.8,30.29,North,360,14.0,28.0,29,0.00,,---,0.00,VWS V14.01,2013-02-01 20:36:00,
2013-02-01 15:41:00,33.9,3.5,30.29,North,360,5.0,28.0,27,0.00,,---,0.00,VWS V14.01,2013-02-01 20:41:00,
2013-02-01 15:46:00,34.4,4.7,30.29,North,360,7.0,28.0,28,0.00,,---,0.00,VWS V14.01,2013-02-01 20:46:00,
2013-02-01 15:51:00,34.3,4.6,30.29,North,360,15.0,28.0,28,0.00,,---,0.00,VWS V14.01,2013-02-01 20:51:00,
2013-02-01 15:56:00,34.2,4.5,30.29,North,360,4.0,28.0,28,0.00,,---,0.00,VWS V14.01,2013-02-01 20:56:00,
2013-02-01 16:01:00,34.2,4.5,30.29,North,360,14.0,28.0,28,0.00,,---,0.00,VWS V14.01,2013-02-01 21:01:00,
2013-02-01 16:06:00,34.2,3.7,30.29,North,360,14.0,19.0,27,0.00,,---,0.00,VWS V14.01,2013-02-01 21:06:00,
2013-02-01 16:12:00,33.9,3.5,30.29,North,360,11.0,23.0,27,0.00,,---,0.00,VWS V14.01,2013-02-01 21:12:00,
2013-02-01 16:17:00,33.7,4.1,30.29,North,360,7.0,23.0,28,0.00,,---,0.00,VWS V14.01,2013-02-01 21:17:00,
2013-02-01 16:22:00,34.3,4.6,30.30,North,360,19.0,23.0,28,0.00,,---,0.00,VWS V14.01,2013-02-01 21:22:00,
2013-02-01 16:27:00,34.2,4.5,30.30,North,360,6.0,23.0,28,0.00,,---,0.00,VWS V14.01,2013-02-01 21:27:00,
2013-02-01 16:32:00,34.4,4.7,30.30,North,360,9.0,23.0,28,0.00,,---,0.00,VWS V14.01,2013-02-01 21:32:00,
2013-02-01 16:37:00,34.4,4.7,30.30,North,360,9.0,23.0,28,0.00,,---,0.00,VWS V14.01,2013-02-01 21:37:00,
2013-02-01 16:42:00,34.5,4.8,30.30,North,360,14.0,23.0,28,0.00,,---,0.00,VWS V14.01,2013-02-01 21:42:00,
2013-02-01 16:47:00,34.8,5.0,30.30,North,360,7.0,23.0,28,0.00,,---,0.00,VWS V14.01,2013-02-01 21:47:00,
2013-02-01 16:52:00,34.8,5.0,30.30,North,360,6.0,23.0,28,0.00,,---,0.00,VWS V14.01,2013-02-01 21:52:00,
2013-02-01 16:57:00,34.4,4.7,30.30,North,360,5.0,23.0,28,0.00,,---,0.00,VWS V14.01,2013-02-01 21:57:00,
2013-02-01 17:02:00,34.5,4.8,30.30,North,360,14.0,23.0,28,0.00,,---,0.00,VWS V14.01,2013-02-01 22:02:00,
2013-02-01 17:08:00,34.2,4.5,30.30,North,360,15.0,17.0,28,0.00,,---,0.00,VWS V14.01,2013-02-01 22:08:00,
2013-02-01 17:13:00,33.9,5.0,30.30,North,360,9.0,19.0,29,0.00,,---,0.00,VWS V14.01,2013-02-01 22:13:00,
2013-02-01 17:18:00,33.8,4.9,30.31,North,360,1.0,19.0,29,0.00,,---,0.00,VWS V14.01,2013-02-01 22:18:00,
2013-02-01 17:23:00,33.7,4.8,30.31,North,360,10.0,19.0,29,0.00,,---,0.00,VWS V14.01,2013-02-01 22:23:00,
2013-02-01 17:28:00,33.7,5.6,30.31,North,360,10.0,19.0,30,0.00,,---,0.00,VWS V14.01,2013-02-01 22:28:00,
2013-02-01 17:33:00,33.7,5.6,30.31,North,360,5.0,19.0,30,0.00,,---,0.00,VWS V14.01,2013-02-01 22:33:00,
2013-02-01 17:38:00,33.5,5.4,30.32,North,360,5.0,19.0,30,0.00,,---,0.00,VWS V14.01,2013-02-01 22:38:00,
2013-02-01 17:43:00,33.3,5.2,30.32,North,360,3.0,19.0,30,0.00,,---,0.00,VWS V14.01,2013-02-01 22:43:00,
2013-02-01 17:48:00,33.1,5.8,30.32,North,360,5.0,19.0,31,0.00,,---,0.00,VWS V14.01,2013-02-01 22:48:00,
2013-02-01 17:53:00,32.7,5.4,30.32,North,360,0.0,19.0,31,0.00,,---,0.00,VWS V14.01,2013-02-01 22:53:00,
2013-02-01 17:58:00,32.6,6.0,30.32,North,360,5.0,19.0,32,0.00,,---,0.00,VWS V14.01,2013-02-01 22:58:00,
2013-02-01 18:04:00,32.4,5.8,30.32,North,360,5.0,6.0,32,0.00,,---,0.00,VWS V14.01,2013-02-01 23:04:00,
2013-02-01 18:09:00,32.4,6.5,30.32,North,360,4.0,7.0,33,0.00,,---,0.00,VWS V14.01,2013-02-01 23:09:00,
2013-02-01 18:14:00,32.2,5.7,30.32,North,360,5.0,8.0,32,0.00,,---,0.00,VWS V14.01,2013-02-01 23:14:00,
2013-02-01 18:19:00,31.9,6.1,30.32,North,360,5.0,8.0,33,0.00,,---,0.00,VWS V14.01,2013-02-01 23:19:00,
2013-02-01 18:24:00,31.7,5.9,30.33,North,360,3.0,8.0,33,0.00,,---,0.00,VWS V14.01,2013-02-01 23:24:00,
2013-02-01 18:29:00,31.6,6.5,30.33,North,360,0.0,8.0,34,0.00,,---,0.00,VWS V14.01,2013-02-01 23:29:00,
2013-02-01 18:34:00,31.5,6.4,30.33,North,360,5.0,8.0,34,0.00,,---,0.00,VWS V14.01,2013-02-01 23:34:00,
2013-02-01 18:39:00,31.1,6.0,30.33,North,360,2.0,8.0,34,0.00,,---,0.00,VWS V14.01,2013-02-01 23:39:00,
2013-02-01 18:44:00,30.6,6.2,30.34,North,360,2.0,8.0,35,0.00,,---,0.00,VWS V14.01,2013-02-01 23:44:00,
2013-02-01 18:49:00,30.3,6.6,30.34,North,360,6.0,9.0,36,0.00,,---,0.00,VWS V14.01,2013-02-01 23:49:00,
2013-02-01 18:54:00,30.3,6.6,30.34,North,360,3.0,9.0,36,0.00,,---,0.00,VWS V14.01,2013-02-01 23:54:00,
2013-02-01 18:59:00,30.4,6.7,30.34,North,360,4.0,9.0,36,0.00,,---,0.00,VWS V14.01,2013-02-01 23:59:00,
2013-02-01 19:04:00,30.3,6.6,30.34,North,360,4.0,9.0,36,0.00,,---,0.00,VWS V14.01,2013-02-02 00:04:00,
2013-02-01 19:09:00,30.2,6.5,30.34,North,360,4.0,11.0,36,0.00,,---,0.00,VWS V14.01,2013-02-02 00:09:00,
2013-02-01 19:14:00,30.1,6.4,30.34,North,360,9.0,11.0,36,0.00,,---,0.00,VWS V14.01,2013-02-02 00:14:00,
2013-02-01 19:20:00,29.9,6.2,30.35,North,360,1.0,11.0,36,0.00,,---,0.00,VWS V14.01,2013-02-02 00:20:00,
2013-02-01 19:25:00,29.8,6.7,30.35,North,360,2.0,11.0,37,0.00,,---,0.00,VWS V14.01,2013-02-02 00:25:00,
2013-02-01 19:30:00,29.7,6.6,30.36,North,360,0.0,11.0,37,0.00,,---,0.00,VWS V14.01,2013-02-02 00:30:00,
2013-02-01 19:35:00,29.6,6.5,30.36,North,360,0.0,11.0,37,0.00,,---,0.00,VWS V14.01,2013-02-02 00:35:00,
2013-02-01 19:40:00,29.3,6.3,30.35,North,360,0.0,11.0,37,0.00,,---,0.00,VWS V14.01,2013-02-02 00:40:00,
2013-02-01 19:45:00,29.2,6.8,30.36,North,360,2.0,11.0,38,0.00,,---,0.00,VWS V14.01,2013-02-02 00:45:00,
2013-02-01 19:50:00,29.4,6.4,30.36,North,360,5.0,11.0,37,0.00,,---,0.00,VWS V14.01,2013-02-02 00:50:00,
2013-02-01 19:55:00,29.3,6.3,30.36,North,360,2.0,11.0,37,0.00,,---,0.00,VWS V14.01,2013-02-02 00:55:00,
2013-02-01 20:00:00,29.2,6.8,30.36,North,360,2.0,11.0,38,0.00,,---,0.00,VWS V14.01,2013-02-02 01:00:00,
2013-02-01 20:05:00,29.2,6.8,30.36,North,360,1.0,2.0,38,0.00,,---,0.00,VWS V14.01,2013-02-02 01:05:00,
2013-02-01 20:10:00,29.0,6.6,30.37,North,360,0.0,2.0,38,0.00,,---,0.00,VWS V14.01,2013-02-02 01:10:00,
2013-02-01 20:15:00,28.8,7.0,30.37,North,360,2.0,3.0,39,0.00,,---,0.00,VWS V14.01,2013-02-02 01:15:00,
2013-02-01 20:21:00,28.5,7.3,30.37,North,360,4.0,6.0,40,0.00,,---,0.00,VWS V14.01,2013-02-02 01:21:00,
2013-02-01 20:26:00,28.6,6.8,30.37,North,360,5.0,10.0,39,0.00,,---,0.00,VWS V14.01,2013-02-02 01:26:00,
2013-02-01 20:31:00,28.7,6.9,30.38,North,360,3.0,10.0,39,0.00,,---,0.00,VWS V14.01,2013-02-02 01:31:00,
2013-02-01 20:36:00,28.6,7.3,30.38,North,360,0.0,10.0,40,0.00,,---,0.00,VWS V14.01,2013-02-02 01:36:00,
2013-02-01 20:41:00,28.5,7.3,30.39,North,360,0.0,10.0,40,0.00,,---,0.00,VWS V14.01,2013-02-02 01:41:00,
2013-02-01 20:46:00,28.4,7.2,30.39,North,360,0.0,10.0,40,0.00,,---,0.00,VWS V14.01,2013-02-02 01:46:00,
2013-02-01 20:51:00,28.3,7.6,30.39,North,360,5.0,10.0,41,0.00,,---,0.00,VWS V14.01,2013-02-02 01:51:00,
2013-02-01 20:56:00,28.1,7.4,30.39,North,360,5.0,10.0,41,0.00,,---,0.00,VWS V14.01,2013-02-02 01:56:00,
2013-02-01 21:01:00,27.9,7.3,30.39,North,360,0.0,10.0,41,0.00,,---,0.00,VWS V14.01,2013-02-02 02:01:00,
2013-02-01 21:06:00,27.7,7.6,30.40,North,360,1.0,2.0,42,0.00,,---,0.00,VWS V14.01,2013-02-02 02:06:00,
2013-02-01 21:11:00,27.5,7.4,30.40,North,360,2.0,6.0,42,0.00,,---,0.00,VWS V14.01,2013-02-02 02:11:00,
2013-02-01 21:16:00,27.4,7.9,30.40,North,360,6.0,9.0,43,0.00,,---,0.00,VWS V14.01,2013-02-02 02:16:00,
2013-02-01 21:21:00,27.5,7.9,30.39,North,360,7.0,10.0,43,0.00,,---,0.00,VWS V14.01,2013-02-02 02:21:00,
2013-02-01 21:26:00,27.4,7.9,30.39,North,360,5.0,11.0,43,0.00,,---,0.00,VWS V14.01,2013-02-02 02:26:00,
2013-02-01 21:31:00,27.1,8.1,30.39,North,360,4.0,11.0,44,0.00,,---,0.00,VWS V14.01,2013-02-02 02:31:00,
2013-02-01 21:37:00,26.8,8.3,30.39,North,360,3.0,11.0,45,0.00,,---,0.00,VWS V14.01,2013-02-02 02:37:00,
2013-02-01 21:42:00,26.6,8.1,30.39,North,360,2.0,11.0,45,0.00,,---,0.00,VWS V14.01,2013-02-02 02:42:00,
2013-02-01 21:47:00,26.5,8.0,30.38,North,360,6.0,11.0,45,0.00,,---,0.00,VWS V14.01,2013-02-02 02:47:00,
2013-02-01 21:52:00,26.6,8.6,30.38,North,360,9.0,11.0,46,0.00,,---,0.00,VWS V14.01,2013-02-02 02:52:00,
2013-02-01 21:57:00,26.5,8.5,30.39,North,360,3.0,11.0,46,0.00,,---,0.00,VWS V14.01,2013-02-02 02:57:00,
2013-02-01 22:02:00,26.4,8.4,30.39,North,360,1.0,11.0,46,0.00,,---,0.00,VWS V14.01,2013-02-02 03:02:00,
2013-02-01 22:07:00,26.2,8.7,30.38,North,360,3.0,5.0,47,0.00,,---,0.00,VWS V14.01,2013-02-02 03:07:00,
2013-02-01 22:13:00,26.2,8.3,30.39,North,360,6.0,7.0,46,0.00,,---,0.00,VWS V14.01,2013-02-02 03:13:00,
2013-02-01 22:18:00,26.2,8.3,30.39,North,360,5.0,8.0,46,0.00,,---,0.00,VWS V14.01,2013-02-02 03:18:00,
2013-02-01 22:23:00,26.2,8.3,30.39,North,360,2.0,8.0,46,0.00,,---,0.00,VWS V14.01,2013-02-02 03:23:00,
2013-02-01 22:28:00,26.2,8.7,30.39,North,360,6.0,8.0,47,0.00,,---,0.00,VWS V14.01,2013-02-02 03:28:00,
2013-02-01 22:33:00,26.1,8.6,30.39,North,360,4.0,9.0,47,0.00,,---,0.00,VWS V14.01,2013-02-02 03:33:00,
2013-02-01 22:38:00,26.1,8.6,30.39,North,360,0.0,9.0,47,0.00,,---,0.00,VWS V14.01,2013-02-02 03:38:00,
2013-02-01 22:43:00,25.9,8.9,30.39,North,360,3.0,9.0,48,0.00,,---,0.00,VWS V14.01,2013-02-02 03:43:00,
2013-02-01 22:48:00,25.8,8.8,30.39,North,360,7.0,9.0,48,0.00,,---,0.00,VWS V14.01,2013-02-02 03:48:00,
2013-02-01 22:53:00,25.7,8.7,30.39,North,360,4.0,9.0,48,0.00,,---,0.00,VWS V14.01,2013-02-02 03:53:00,
2013-02-01 22:58:00,25.7,8.7,30.39,North,360,4.0,9.0,48,0.00,,---,0.00,VWS V14.01,2013-02-02 03:58:00,
2013-02-01 23:03:00,25.8,8.8,30.39,North,360,3.0,4.0,48,0.00,,---,0.00,VWS V14.01,2013-02-02 04:03:00,
2013-02-01 23:08:00,25.6,9.1,30.39,North,360,2.0,5.0,49,0.00,,---,0.00,VWS V14.01,2013-02-02 04:08:00,
2013-02-01 23:13:00,25.4,9.4,30.39,North,360,0.0,5.0,50,0.00,,---,0.00,VWS V14.01,2013-02-02 04:13:00,
2013-02-01 23:18:00,25.3,8.8,30.39,North,360,3.0,5.0,49,0.00,,---,0.00,VWS V14.01,2013-02-02 04:18:00,
2013-02-01 23:23:00,25.3,8.8,30.39,North,360,4.0,7.0,49,0.00,,---,0.00,VWS V14.01,2013-02-02 04:23:00,
2013-02-01 23:28:00,25.2,8.7,30.39,North,360,1.0,7.0,49,0.00,,---,0.00,VWS V14.01,2013-02-02 04:28:00,
2013-02-01 23:33:00,25.1,9.1,30.39,North,360,7.0,7.0,50,0.00,,---,0.00,VWS V14.01,2013-02-02 04:33:00,
2013-02-01 23:38:00,25.1,8.6,30.39,North,360,3.0,7.0,49,0.00,,---,0.00,VWS V14.01,2013-02-02 04:38:00,
2013-02-01 23:43:00,25.1,8.6,30.39,North,360,3.0,7.0,49,0.00,,---,0.00,VWS V14.01,2013-02-02 04:43:00,
2013-02-01 23:49:00,25.1,8.6,30.39,North,360,3.0,7.0,49,0.00,,---,0.00,VWS V14.01,2013-02-02 04:49:00,
2013-02-01 23:54:00,25.1,8.6,30.39,North,360,0.0,7.0,49,0.00,,---,0.00,VWS V14.01,2013-02-02 04:54:00,
2013-02-01 23:59:00,25.0,8.6,30.39,North,360,0.0,7.0,49,0.00,,---,0.00,VWS V14.01,2013-02-02 04:59:00,